THOR ABLESTAR DEB, 745

Orbit data source: Space-Track

THOR ABLESTAR DEB, 745 is space debris in LEO originally from a launch on Sat, 28 Sep 1963 UTC launched from the Air Force Western Test Range (AFWTR). Debris objects in space refer to the collection of defunct objects orbiting the Earth. Examples of debris include non-operational satellites, rocket bodies, and fragments generated from explosions, collisions, or faulty payload assembly.

Loading next visibility...
Identifier
745, 1963-038E
Orbit
LEO
Last TLE update
15 hours ago
Origin
Manufacturer
Unknown
Mission
Spacecraft
Bus & Motor
Unknown
Mass
Unknown
Launch date (UTC)
1963-09-28 (62 years ago)
Launch vehicle
Unknown
Launch site
Air Force Western Test Range (AFWTR)
Object type
Payload
Rocket body
Debris
Shape & HBR
Unknown
Radar Cross Section
Small (<0.1 m²)

Expand to show TLE details & history

TLE from 15 hours ago
0 THOR ABLESTAR DEB
1 00745U 63038E   25128.60905955  .00000318  00000-0  44526-3 0  9999
2 00745  89.9962 336.4832 0019099  38.4386  22.1443 13.55408286 36625
Epoch: 2025-05-08T14:37Z
Definitive object data (Epoch: 2025-05-08T14:37:02.745Z)
Latitude
60.75489°
Longitude
-109.44859°
Altitude
1,049.731 km
Speed
7.339 km/s
True Right ascension
22h 25m 57s
True Declination
60° 36' 50"
Sunlit
Object was in daylight at TLE epoch
Visualization TLE readout
Latitude
45.07998°
Longitude
70.54064°
Altitude
1,061.344 km
Speed
7.324 km/s
Apparent Right ascension
06h 12m 37s
Apparent Declination
17° 25' 42"
Sunlit
Object is in daylight
Visualization observer readout
Local Sidereal Time
13:18:01
Azimuth
293.707° NW
Elevation
-0.789°
Doppler factor
1
Orbital elements
Apogee altitude
1,063.654 km
Perigee altitude
1,035.282 km
Semi-major axis
7,427.605 km
Eccentricity
0.0019099
Inclination
89.9962°
RAAN
336.4832°
Arg. of periapsis
38.4386°
True anomaly
22.22698°
Mean anomaly
22.1443°
Eccentric anomaly
22.18562°
Mean motion
3.39055 °/min
BSTAR
0.00044526
Orbital period
106.18 mins
Loading maneuver chart data...
Loading SW <> Apogee altitude chart data...

THOR ABLESTAR DEB Visibility forecast

Observer location: undefined°, undefined°

Span
Click to sort rows by Start time (UTC) header in descending order
Start Az.
Max El. time (UTC)
Max El. Az.
Max El.
End time (UTC)
End Az.
11 mins2025-05-09 13:27:23.755Z147.472° SSE2025-05-09 13:33:23.755Z74.697° E33.896°2025-05-09 13:38:23.755Z14.654° NNE
9 mins2025-05-09 15:15:23.755Z228.297° WSW2025-05-09 15:19:23.755Z278.238° WNW25.983°2025-05-09 15:24:23.755Z333.557° NNW
6 mins2025-05-10 00:37:23.755Z52.467° ENE2025-05-10 00:39:23.755Z73.05° E16.19°2025-05-10 00:43:23.755Z112.84° SE
11 mins2025-05-10 02:21:23.755Z356.592° N2025-05-10 02:26:23.755Z283.278° WNW43.732°2025-05-10 02:32:23.755Z192.761° SSW
|